Hourly Data Report for October 09, 2019

MUSKOKA
ONTARIO
Current Station Operator: NAVCAN

44°58'29.000" N
79°18'12.000" W
281.90 m
6115529
71532
YQA

Download Data

Hourly Data (October 2019)
Hourly Data Report for October 9, 2019
TIME
LST
Temp Definition
°C
Dew Point Definition
°C
Rel Hum Definition
%
Precip. Amount Definition
mm

Wind Dir Definition
10's deg

Wind Spd Definition
km/h
Visibility Definition
km
Stn Press Definition
kPa
Hmdx Definition


Wind Chill Definition


Weather Definition


00:00 0.9 0.7 98 0.0   0 16.1 99.26     LegendNANA
01:00 1.1 1.0 99 0.0   0 16.1 99.28     LegendNANA
02:00 0.8 0.7 99 0.0   0 16.1 99.29     LegendNANA
03:00 -0.5 -0.6 99 0.0   0 16.1 99.29     LegendNANA
04:00 -0.3 -0.4 99 0.0   0 16.1 99.32     LegendNANA
05:00 -0.7 -0.8 99 0.0   0 16.1 99.38     LegendNANA
06:00 -0.6 -0.7 99 0.0   0 16.1 99.43     LegendNANA
07:00 -0.7 -0.8 99 0.0 LegendMM 4 16.1 99.48   -2 LegendNANA
08:00 6.1 4.9 92 0.0   0 16.1 99.53     LegendNANA
09:00 10.4 5.2 70 0.0 11 9 16.1 99.54     LegendNANA
10:00 13.2 4.4 55 0.0 13 13 16.1 99.52     LegendNANA
11:00 14.9 2.6 43 0.0 10 11 16.1 99.46     LegendNANA
12:00 16.1 2.4 39 0.0 13 11 16.1 99.41     LegendNANA
13:00 17.2 1.3 34 0.0 7 8 16.1 99.31     LegendNANA
14:00 18.4 1.2 31 0.0 13 18 16.1 99.25     LegendNANA
15:00 18.5 0.4 29 0.0 14 13 16.1 99.19     LegendNANA
16:00 18.4 1.0 31 0.0 7 8 16.1 99.17     LegendNANA
17:00 16.8 1.0 34 0.0 10 5 16.1 99.20     LegendNANA
18:00 10.7 3.4 61 0.0 LegendMM 4 16.1 99.22     LegendNANA
19:00 7.2 3.3 76 0.0   0 16.1 99.27     LegendNANA
20:00 5.4 3.1 85 0.0 LegendMM 4 16.1 99.29     LegendNANA
21:00 7.4 2.6 71 0.0 11 8 16.1 99.35     LegendNANA
22:00 6.7 2.7 76 0.0 9 5 16.1 99.35     LegendNANA
23:00 4.0 2.5 90 0.0   0 16.1 99.36     LegendNANA

Notes on Data Quality.

Legend

  • E = Estimated
  • M = Missing
  • NA = Not Available*
  • [empty] = Indicates an unobserved value
Date modified: